• In United Kingdom
  • List of Countries
  • For 7 days
  • Water Temperature
  • Satellite Maps
  • Weather Map
  • Weather Widgets
  • user-avatar
    Login

    Hourly Weather Swansea

    Today, 23 November, Thursday

    Time Temperature Precipitation Wind Pressure Humidity
    00:00 +11°C° 0.9 mm 9 mps 736 mmHg 91%
    01:00 +10°C° 0.2 mm 9 mps 737 mmHg 90%
    02:00 +8°C° 0.2 mm 9 mps 738 mmHg 89%
    03:00 +8°C° 0.2 mm 9 mps 738 mmHg 88%
    04:00 +7°C° 0 mm 9 mps 739 mmHg 85%
    05:00 +6°C° 0 mm 9 mps 741 mmHg 82%
    06:00 +4°C° 0 mm 8 mps 742 mmHg 79%
    07:00 +5°C° 0.1 mm 9 mps 743 mmHg 77%
    08:00 +5°C° 0.1 mm 10 mps 744 mmHg 75%
    09:00 +6°C° 0.1 mm 11 mps 745 mmHg 73%
    10:00 +5°C° 0.1 mm 12 mps 745 mmHg 72%
    11:00 +7°C° 0.1 mm 12 mps 746 mmHg 70%
    12:00 +8°C° 0 mm 11 mps 747 mmHg 71%
    13:00 +8°C° 0.1 mm 10 mps 748 mmHg 71%
    14:00 +7°C° 0.1 mm 8 mps 749 mmHg 72%
    15:00 +8°C° 0.1 mm 7 mps 750 mmHg 73%
    16:00 +7°C° 0 mm 6 mps 750 mmHg 74%
    17:00 +7°C° 0 mm 5 mps 751 mmHg 75%
    18:00 +7°C° 0 mm 3 mps 752 mmHg 76%
    19:00 +7°C° 0.1 mm 3 mps 752 mmHg 75%
    20:00 +7°C° 0.1 mm 2 mps 752 mmHg 75%
    21:00 +7°C° 0.1 mm 2 mps 752 mmHg 75%
    22:00 +6°C° 0.1 mm 2 mps 752 mmHg 74%
    23:00 +6°C° 0.1 mm 2 mps 753 mmHg 73%

    Tomorrow, 24 November, Friday

    Time Temperature Precipitation Wind Pressure Humidity
    00:00 +6°C° 0.1 mm 2 mps 753 mmHg 72%
    01:00 +6°C° 0 mm 2 mps 753 mmHg 71%
    02:00 +5°C° 0 mm 3 mps 753 mmHg 71%
    03:00 +5°C° 0 mm 3 mps 753 mmHg 70%
    04:00 +5°C° 0 mm 3 mps 754 mmHg 71%
    05:00 +4°C° 0 mm 3 mps 754 mmHg 71%
    06:00 +5°C° 0 mm 2 mps 755 mmHg 71%
    07:00 +5°C° 0 mm 2 mps 755 mmHg 72%
    08:00 +5°C° 0 mm 2 mps 756 mmHg 73%
    09:00 +5°C° 0 mm 2 mps 756 mmHg 74%
    10:00 +6°C° 0 mm 2 mps 757 mmHg 70%
    11:00 +7°C° 0 mm 2 mps 757 mmHg 67%
    12:00 +8°C° 0 mm 2 mps 757 mmHg 63%
    13:00 +7°C° 0 mm 2 mps 758 mmHg 66%
    14:00 +7°C° 0 mm 2 mps 758 mmHg 68%
    15:00 +7°C° 0 mm 3 mps 758 mmHg 71%
    16:00 +5°C° 0 mm 3 mps 758 mmHg 72%
    17:00 +4°C° 0 mm 3 mps 758 mmHg 74%
    18:00 +3°C° 0 mm 3 mps 758 mmHg 75%
    19:00 +3°C° 0.2 mm 3 mps 759 mmHg 76%
    20:00 +3°C° 0.2 mm 3 mps 759 mmHg 77%
    21:00 +3°C° 0.2 mm 3 mps 759 mmHg 77%
    22:00 +3°C° 0.4 mm 4 mps 759 mmHg 78%
    23:00 +3°C° 0.4 mm 4 mps 759 mmHg 79%

    Day after tomorrow, 25 November, Saturday

    Time Temperature Precipitation Wind Pressure Humidity
    00:00 +2°C° 0.4 mm 5 mps 759 mmHg 80%
    01:00 +1°C° 0 mm 5 mps 760 mmHg 79%
    02:00 +1°C° 0 mm 5 mps 760 mmHg 78%
    03:00 0°C° 0 mm 5 mps 760 mmHg 78%
    04:00 0°C° 0 mm 5 mps 760 mmHg 77%
    05:00 -1°C° 0 mm 6 mps 760 mmHg 77%
    06:00 -1°C° 0 mm 6 mps 761 mmHg 77%
    07:00 +1°C° 0.1 mm 6 mps 761 mmHg 77%
    08:00 +1°C° 0.1 mm 6 mps 762 mmHg 77%
    09:00 +2°C° 0.1 mm 7 mps 762 mmHg 77%
    10:00 +2°C° 0.1 mm 7 mps 763 mmHg 73%
    11:00 +2°C° 0.1 mm 8 mps 763 mmHg 70%
    12:00 +3°C° 0.1 mm 9 mps 763 mmHg 67%
    13:00 +2°C° 0.1 mm 8 mps 764 mmHg 67%
    14:00 +2°C° 0.1 mm 8 mps 764 mmHg 68%
    15:00 +2°C° 0.1 mm 8 mps 764 mmHg 69%
    16:00 +1°C° 0 mm 8 mps 764 mmHg 71%
    17:00 +2°C° 0 mm 7 mps 765 mmHg 73%
    18:00 0°C° 0 mm 7 mps 765 mmHg 75%
    19:00 0°C° 0 mm 7 mps 766 mmHg 75%
    20:00 0°C° 0 mm 7 mps 766 mmHg 76%
    21:00 0°C° 0 mm 7 mps 766 mmHg 76%
    22:00 0°C° 0 mm 7 mps 767 mmHg 76%
    23:00 0°C° 0 mm 7 mps 767 mmHg 77%

    26 November, Sunday

    Time Temperature Precipitation Wind Pressure Humidity
    00:00 0°C° 0 mm 7 mps 767 mmHg 77%
    01:00 0°C° 0 mm 7 mps 767 mmHg 77%
    02:00 0°C° 0 mm 7 mps 767 mmHg 77%
    03:00 0°C° 0 mm 7 mps 767 mmHg 76%
    04:00 0°C° 0 mm 7 mps 768 mmHg 76%
    05:00 0°C° 0 mm 7 mps 768 mmHg 76%
    06:00 +1°C° 0 mm 6 mps 768 mmHg 76%
    07:00 +2°C° 0 mm 6 mps 768 mmHg 77%
    08:00 +2°C° 0 mm 6 mps 768 mmHg 77%
    09:00 +2°C° 0 mm 6 mps 768 mmHg 77%
    10:00 +3°C° 0 mm 6 mps 768 mmHg 76%
    11:00 +4°C° 0 mm 6 mps 769 mmHg 75%
    12:00 +5°C° 0 mm 6 mps 769 mmHg 74%
    13:00 +5°C° 0 mm 6 mps 768 mmHg 76%
    14:00 +5°C° 0 mm 5 mps 768 mmHg 78%
    15:00 +5°C° 0 mm 5 mps 768 mmHg 80%
    16:00 +5°C° 0.1 mm 5 mps 767 mmHg 82%
    17:00 +5°C° 0.1 mm 5 mps 767 mmHg 84%
    18:00 +4°C° 0.1 mm 6 mps 767 mmHg 86%
    19:00 +5°C° 0.9 mm 7 mps 767 mmHg 88%
    20:00 +5°C° 0.9 mm 8 mps 766 mmHg 89%
    21:00 +6°C° 0.9 mm 9 mps 766 mmHg 91%
    22:00 +6°C° 0.8 mm 9 mps 765 mmHg 90%
    23:00 +7°C° 0.8 mm 10 mps 765 mmHg 89%

    27 November, Monday

    Time Temperature Precipitation Wind Pressure Humidity
    00:00 +7°C° 0.8 mm 10 mps 764 mmHg 88%
    01:00 +7°C° 1.6 mm 11 mps 764 mmHg 89%
    02:00 +7°C° 1.6 mm 11 mps 763 mmHg 90%
    03:00 +7°C° 1.6 mm 11 mps 762 mmHg 91%
    04:00 +6°C° 0.8 mm 10 mps 762 mmHg 89%
    05:00 +6°C° 0.8 mm 9 mps 762 mmHg 88%
    06:00 +6°C° 0.8 mm 8 mps 762 mmHg 86%
    07:00 +5°C° 0 mm 7 mps 762 mmHg 86%
    08:00 +5°C° 0 mm 7 mps 762 mmHg 86%
    09:00 +5°C° 0 mm 7 mps 762 mmHg 86%
    10:00 +5°C° 0.1 mm 7 mps 762 mmHg 84%
    11:00 +6°C° 0.1 mm 8 mps 762 mmHg 82%
    12:00 +6°C° 0.1 mm 8 mps 762 mmHg 80%
    13:00 +6°C° 0.1 mm 8 mps 762 mmHg 79%
    14:00 +6°C° 0.1 mm 8 mps 762 mmHg 78%
    15:00 +5°C° 0.1 mm 7 mps 762 mmHg 78%
    16:00 +5°C° 0.1 mm 7 mps 761 mmHg 80%
    17:00 +5°C° 0.1 mm 7 mps 761 mmHg 83%
    18:00 +5°C° 0.1 mm 7 mps 761 mmHg 85%
    19:00 +5°C° 0.4 mm 8 mps 760 mmHg 86%
    20:00 +6°C° 0.4 mm 8 mps 760 mmHg 86%
    21:00 +6°C° 0.4 mm 9 mps 759 mmHg 87%
    22:00 +6°C° 0.4 mm 9 mps 759 mmHg 86%
    23:00 +6°C° 0.4 mm 9 mps 758 mmHg 86%

    28 November, Tuesday

    Time Temperature Precipitation Wind Pressure Humidity
    00:00 +6°C° 0.4 mm 9 mps 757 mmHg 86%
    01:00 +6°C° 0.3 mm 10 mps 757 mmHg 84%
    02:00 +5°C° 0.3 mm 10 mps 756 mmHg 82%
    03:00 +5°C° 0.3 mm 10 mps 755 mmHg 80%
    04:00 +5°C° 0.1 mm 10 mps 755 mmHg 79%
    05:00 +5°C° 0.1 mm 10 mps 754 mmHg 79%
    06:00 +3°C° 0.1 mm 10 mps 754 mmHg 78%
    07:00 +3°C° 0.1 mm 11 mps 754 mmHg 78%
    08:00 +3°C° 0.1 mm 11 mps 754 mmHg 77%
    09:00 +3°C° 0.1 mm 11 mps 754 mmHg 77%
    10:00 +4°C° 0.2 mm 12 mps 753 mmHg 77%
    11:00 +4°C° 0.2 mm 12 mps 753 mmHg 77%
    12:00 +4°C° 0.2 mm 13 mps 753 mmHg 77%
    13:00 +4°C° 0.1 mm 12 mps 753 mmHg 77%
    14:00 +4°C° 0.1 mm 11 mps 753 mmHg 77%
    15:00 +4°C° 0.1 mm 11 mps 753 mmHg 77%
    16:00 +3°C° 0.1 mm 10 mps 753 mmHg 77%
    17:00 +3°C° 0.1 mm 9 mps 753 mmHg 78%
    18:00 +2°C° 0.1 mm 8 mps 753 mmHg 78%
    19:00 +2°C° 0.1 mm 8 mps 753 mmHg 79%
    20:00 +3°C° 0.1 mm 7 mps 752 mmHg 81%
    21:00 +2°C° 0.1 mm 6 mps 752 mmHg 82%
    22:00 +2°C° 0.1 mm 6 mps 752 mmHg 83%
    23:00 +2°C° 0.1 mm 5 mps 752 mmHg 84%
    Show more